(292195) = 2001 SD66 = 2006 SE33

Discovered at Catalina on 2006-09-17 by CSS.

Orbit

Orbit type: Main Belt

Note: WebGL enabled browser required.

epoch2024-03-31.0
epoch JD2460400.5
perihelion date2023-05-26.63759
perihelion JD2460091.13760
argument of perihelion (°)228.36909
ascending node (°)192.37085
inclination (°)16.75523
eccentricity0.2275448
perihelion distance (AU)2.3627357
Tisserand w.r.t. Jupiter3.1
ΔV w.r.t. Earth (km/sec)10.9
semimajor axis (AU)3.0587350
mean anomaly (°)56.99787
mean daily motion (°/day)0.18424300
aphelion distance (AU)3.755
period (years)5.35
P-vector [x]0.49557276
P-vector [y]0.85769357
P-vector [z]0.13700134
Q-vector [x]-0.86636780
Q-vector [y]0.49934630
Q-vector [z]0.00775299
absolute magnitude16.46
phase slope0.15
uncertainty0
referenceMPEC 2024-E23
observations used311
oppositions13
arc length (days)8202
first opposition used2001
last opposition used2024
residual rms (arc-secs)0.77
perturbers coarse indicatorM-v
perturbers precise indicator003Ek
first observation date used2001-09-17.0
last observation date used2024-03-02.0
computer nameMPCLINUX
JD of orbit computation2456760.756804
perihelion JD uncertainty (days)1.0691E-04
argument of perihelion uncertainty (°)2.3107E-05
ascending node uncertainty (°)1.2083E-05
inclination uncertainty (°)5.1968E-06
eccentricity uncertainty 4.2610E-08
perihelion distance uncertainty (AU)1.2872E-07
Minimum Orbit Intersection Distances (in AU)
for orbit epoch: 2460400.5, reference: E2024-E23
Mercury2.05916
Venus1.658
Earth1.40737
Mars0.95742
Jupiter1.80988
Saturn6.18264
Uranus15.0437
Neptune26.9325

Observations

320 total observations over interval: 2001 09 17.39290 – 2024 03 02.140160
These data are available for download (format description).

Date (UT) J2000 RA J2000 Dec Magn Location Ref
2001 09 17.39290 02 52 20.55 +10 32 50.5 19.8   704 – Lincoln Laboratory ETS, New Mexico MPS 36577
2001 09 17.40727 02 52 20.61 +10 32 42.6 19.9   704 – Lincoln Laboratory ETS, New Mexico MPS 36577
2001 09 17.43579 02 52 20.81 +10 32 28.1 20.0   704 – Lincoln Laboratory ETS, New Mexico MPS 36577
2001 09 17.44996 02 52 20.95 +10 32 21.5 20.0   704 – Lincoln Laboratory ETS, New Mexico MPS 36577
2001 09 19.38942 02 52 38.65 +10 15 38.1 19.9   704 – Lincoln Laboratory ETS, New Mexico MPS 36577
2001 09 19.40368 02 52 38.79 +10 15 30.1 20.2   704 – Lincoln Laboratory ETS, New Mexico MPS 36577
2001 09 19.41793 02 52 38.88 +10 15 21.7 20.0   704 – Lincoln Laboratory ETS, New Mexico MPS 36577
2001 09 19.43222 02 52 38.92 +10 15 13.7 20.4   704 – Lincoln Laboratory ETS, New Mexico MPS 36577
2001 09 19.44650 02 52 38.93 +10 15 06.6 20.0   704 – Lincoln Laboratory ETS, New Mexico MPS 36577
2001 10 24.44268 02 41 59.99 +03 42 01.0 20.0   644 – Palomar Mountain/NEAT MPS 214483
2001 10 24.45457 02 41 59.54 +03 41 52.3 20.3   644 – Palomar Mountain/NEAT MPS 214483
2001 10 24.46520 02 41 59.10 +03 41 43.9 20.5   644 – Palomar Mountain/NEAT MPS 214483
2001 11 11.315770 02 29 55.415 +00 23 22.09 20.23 V 645 – Apache Point-Sloan Digital Sky Survey MPS 213778
2001 11 11.319242 02 29 55.272 +00 23 20.13 21.12   645 – Apache Point-Sloan Digital Sky Survey MPS 213778
2001 11 21.268220 02 24 01.535 -00 58 52.04 20.25 V 645 – Apache Point-Sloan Digital Sky Survey MPS 213778
2001 11 21.271692 02 24 01.417 -00 58 53.52 21.01   645 – Apache Point-Sloan Digital Sky Survey MPS 213778
2002 01 13.116380 02 30 14.485 -01 01 41.52 21.02 V 645 – Apache Point-Sloan Digital Sky Survey MPS 214483
2002 01 13.119852 02 30 14.641 -01 01 40.40 21.90   645 – Apache Point-Sloan Digital Sky Survey MPS 214483
2003 03 01.23145 10 54 08.54 -05 44 15.8 22.0   807 – Cerro Tololo Observatory, La Serena MPS 1579063
2003 03 01.24784 10 54 07.80 -05 44 06.9 21.9   807 – Cerro Tololo Observatory, La Serena MPS 1579063
2003 03 01.25597 10 54 07.30 -05 44 01.2 21.7   807 – Cerro Tololo Observatory, La Serena MPS 1579063
2003 03 01.27390 10 54 06.45 -05 43 51.5 20.7 z 807 – Cerro Tololo Observatory, La Serena MPS 1579063
2003 03 01.28203 10 54 06.10 -05 43 47.5 20.1 z 807 – Cerro Tololo Observatory, La Serena MPS 1579063
2003 03 01.29016 10 54 05.79 -05 43 43.7 20.4 z 807 – Cerro Tololo Observatory, La Serena MPS 1579063
2003 03 01.29829 10 54 05.38 -05 43 39.3 20.3 z 807 – Cerro Tololo Observatory, La Serena MPS 1579063
2006 09 17.31700 23 25 59.16 +05 39 59.1 19.0 V 703 – Catalina Sky Survey MPS 179621
2006 09 17.32907 23 25 58.72 +05 39 52.8 19.3 V 703 – Catalina Sky Survey MPS 179621
2006 09 17.34120 23 25 58.04 +05 39 42.6 20.1 V 703 – Catalina Sky Survey MPS 179621
2006 09 17.35336 23 25 57.43 +05 39 36.3 19.9 V 703 – Catalina Sky Survey MPS 179621
2006 09 19.21794 23 24 43.05 +05 19 12.3 19.9 V 703 – Catalina Sky Survey MPS 179621
2006 09 19.22921 23 24 42.55 +05 19 06.3 19.8 V 703 – Catalina Sky Survey MPS 179621
2006 09 19.24052 23 24 42.12 +05 18 57.8 20.4 V 703 – Catalina Sky Survey MPS 179621
2006 09 19.25183 23 24 41.50 +05 18 51.1 19.9 V 703 – Catalina Sky Survey MPS 179621
2006 10 18.09583 23 09 55.83 +00 00 27.1 20.3 V 691 – Steward Observatory, Kitt Peak-Spacewatch MPS 184139
2006 10 18.10909 23 09 55.62 +00 00 19.3 20.5 V 691 – Steward Observatory, Kitt Peak-Spacewatch MPS 184139
2006 10 18.12233 23 09 55.38 +00 00 11.3 20.6 V 691 – Steward Observatory, Kitt Peak-Spacewatch MPS 184139
2006 10 20.13748 23 09 27.04 -00 19 14.9 20.3 V 691 – Steward Observatory, Kitt Peak-Spacewatch MPS 184139
2006 10 20.15074 23 09 26.84 -00 19 22.8 20.4 V 691 – Steward Observatory, Kitt Peak-Spacewatch MPS 184139
2006 10 20.16400 23 09 26.65 -00 19 30.6 20.8 V 691 – Steward Observatory, Kitt Peak-Spacewatch MPS 184139
2006 10 22.12620 23 09 04.72 -00 37 46.2 20.4 V 691 – Steward Observatory, Kitt Peak-Spacewatch MPS 184140
2006 10 22.13948 23 09 04.57 -00 37 53.7 20.4 V 691 – Steward Observatory, Kitt Peak-Spacewatch MPS 184140
2006 10 22.15277 23 09 04.42 -00 38 01.2 20.4 V 691 – Steward Observatory, Kitt Peak-Spacewatch MPS 184140
2009 04 18.35958 13 47 38.94 -04 38 28.5 21.4 V G96 – Mt. Lemmon Survey MPS 284407
2009 04 18.36648 13 47 38.68 -04 38 25.9 21.4 V G96 – Mt. Lemmon Survey MPS 284407
2009 04 18.37335 13 47 38.29 -04 38 22.2 21.4 V G96 – Mt. Lemmon Survey MPS 284407
2009 04 18.38009 13 47 38.07 -04 38 19.4 21.5 V G96 – Mt. Lemmon Survey MPS 284407
2011 08 02.47123 21 21 15.841 +05 24 58.80 21.0 w F51 – Pan-STARRS 1, Haleakala MPS 388001
2011 08 02.49988 21 21 14.586 +05 24 51.88 21.2 w F51 – Pan-STARRS 1, Haleakala MPS 388001
2011 08 02.51415 21 21 13.965 +05 24 48.43 21.0 w F51 – Pan-STARRS 1, Haleakala MPS 388001
2011 08 18.37133 21 09 38.065 +03 56 54.50 20.7 r F51 – Pan-STARRS 1, Haleakala MPS 388383
2011 08 18.38222 21 09 37.578 +03 56 50.12 20.5 r F51 – Pan-STARRS 1, Haleakala MPS 388383
2011 08 18.38364 21 09 37.514 +03 56 49.46 20.5 r F51 – Pan-STARRS 1, Haleakala MPS 388383
2011 08 18.39574 21 09 36.959 +03 56 44.55 20.8 i F51 – Pan-STARRS 1, Haleakala MPS 388383
2011 08 18.39722 21 09 36.902 +03 56 43.83 20.5 i F51 – Pan-STARRS 1, Haleakala MPS 388383
2011 08 18.40876 21 09 36.377 +03 56 39.16 20.5 i F51 – Pan-STARRS 1, Haleakala MPS 388383
2011 08 18.41028 21 09 36.308 +03 56 38.28 20.3 i F51 – Pan-STARRS 1, Haleakala MPS 388383
2012 12 07.45274 06 00 12.512 -02 48 41.44 20.0 r F51 – Pan-STARRS 1, Haleakala MPS 447638
2012 12 07.46550 06 00 11.899 -02 48 45.54 20.1 r F51 – Pan-STARRS 1, Haleakala MPS 447638
2014 03 13.41796 12 34 58.45 -07 00 57.0   691 – Steward Observatory, Kitt Peak-Spacewatch MPS 506216
2014 03 13.43565 12 34 57.76 -07 00 48.4   691 – Steward Observatory, Kitt Peak-Spacewatch MPS 506216
2014 03 13.45334 12 34 57.04 -07 00 40.8   691 – Steward Observatory, Kitt Peak-Spacewatch MPS 506216
2014 04 01.26854 12 22 02.22 -04 24 21.3 21.1 V G96 – Mt. Lemmon Survey MPS 509628
2014 04 01.27309 12 22 02.03 -04 24 19.5 20.7 V G96 – Mt. Lemmon Survey MPS 509628
2014 04 01.27766 12 22 01.87 -04 24 16.8 20.4 V G96 – Mt. Lemmon Survey MPS 509628
2014 04 01.28220 12 22 01.67 -04 24 14.0 20.3 V G96 – Mt. Lemmon Survey MPS 509628
2014 04 02.24806 12 21 21.84 -04 16 01.5 20.7 V G96 – Mt. Lemmon Survey MPS 509628
2014 04 02.25273 12 21 21.71 -04 15 59.7 20.2 V G96 – Mt. Lemmon Survey MPS 509628
2014 04 02.25740 12 21 21.52 -04 15 57.2 20.4 V G96 – Mt. Lemmon Survey MPS 509628
2014 04 02.26208 12 21 21.32 -04 15 54.1 20.7 V G96 – Mt. Lemmon Survey MPS 509628
2014 04 04.40047 12 19 54.233 -03 57 48.46 20.9 w F51 – Pan-STARRS 1, Haleakala MPS 510940
2014 04 04.41183 12 19 53.771 -03 57 42.46 20.9 w F51 – Pan-STARRS 1, Haleakala MPS 510940
2014 04 04.42321 12 19 53.284 -03 57 36.87 21.1 w F51 – Pan-STARRS 1, Haleakala MPS 510940
2015 06 18.37840 15 46 54.361 -02 15 23.65 22.2 w F51 – Pan-STARRS 1, Haleakala MPS 612436
2015 06 18.39122 15 46 53.932 -02 15 22.99 22.0 w F51 – Pan-STARRS 1, Haleakala MPS 612436
2017 08 03.57189 02 10 34.315 +13 31 00.46 20.8 w F51 – Pan-STARRS 1, Haleakala MPS 809101
2017 08 03.58222 02 10 34.936 +13 31 00.53 21.0 w F51 – Pan-STARRS 1, Haleakala MPS 809101
2017 08 03.59258 02 10 35.547 +13 31 00.45 20.9 w F51 – Pan-STARRS 1, Haleakala MPS 809101
2017 08 03.60293 02 10 36.164 +13 31 00.39 20.9 w F51 – Pan-STARRS 1, Haleakala MPS 809101
2017 09 26.33412 02 37 14.55 +08 56 45.6 20.0 V G96 – Mt. Lemmon Survey MPS 822596
2017 09 26.33933 02 37 14.50 +08 56 42.7 20.4 V G96 – Mt. Lemmon Survey MPS 822596
2017 09 26.34451 02 37 14.43 +08 56 39.4 20.3 V G96 – Mt. Lemmon Survey MPS 822596
2017 09 26.34975 02 37 14.37 +08 56 36.2 20.2 V G96 – Mt. Lemmon Survey MPS 822596
2017 09 26.51284 02 37 12.837 +08 54 55.56 20.0 w F51 – Pan-STARRS 1, Haleakala MPS 822596
2017 09 26.52641 02 37 12.684 +08 54 47.11 20.0 w F51 – Pan-STARRS 1, Haleakala MPS 822596
2017 09 26.54008 02 37 12.530 +08 54 38.60 20.0 w F51 – Pan-STARRS 1, Haleakala MPS 822596
2017 09 27.32955 02 37 05.03 +08 46 21.5 20.3 V G96 – Mt. Lemmon Survey MPS 822596
2017 09 27.33512 02 37 04.96 +08 46 18.0 20.3 V G96 – Mt. Lemmon Survey MPS 822596
